| time (UTC) | temp F | wind direction | speed knots | gust knots | rain 1hr in | rain 24hr in | rain mn in | humidity % | barometer mb |
| 20260903093521 | 86 | 0.0 | 0.0 | 0.00 | 0.00 | 0.00 | 53 | 1009.4 | |
| 20260903092526 | 86 | 0.0 | 0.0 | 0.00 | 0.00 | 0.00 | 53 | 1009.5 | |
| 20260903091533 | 86 | 0.0 | 0.0 | 0.00 | 0.00 | 0.00 | 53 | 1009.5 | |
| 20260903090532 | 86 | 0.0 | 0.0 | 0.00 | 0.00 | 0.00 | 53 | 1009.6 | |
| 20260903085534 | 86 | 0.0 | 0.0 | 0.00 | 0.00 | 0.00 | 53 | 1009.7 | |
| 20260903084523 | 86 | 0.0 | 0.0 | 0.00 | 0.00 | 0.00 | 52 | 1009.7 | |
| 20260903083525 | 86 | 0.0 | 0.0 | 0.00 | 0.00 | 0.00 | 52 | 1009.7 | |
| 20260903082529 | 86 | 157 | 0.0 | 0.0 | 0.00 | 0.00 | 0.00 | 52 | 1009.7 |
| 20260903081528 | 86 | 190 | 0.0 | 0.9 | 0.00 | 0.00 | 0.00 | 52 | 1009.8 |
| 20260903080524 | 87 | 210 | 0.0 | 0.9 | 0.00 | 0.00 | 0.00 | 51 | 1009.8 |
| 20260903075522 | 87 | 228 | 0.0 | 0.0 | 0.00 | 0.00 | 0.00 | 52 | 1009.8 |
| 20260903074521 | 87 | 225 | 0.0 | 0.0 | 0.00 | 0.00 | 0.00 | 52 | 1009.9 |
| 20260903073527 | 87 | 0.0 | 0.0 | 0.00 | 0.00 | 0.00 | 52 | 1009.8 | |
| 20260903072525 | 87 | 0.0 | 0.0 | 0.00 | 0.00 | 0.00 | 52 | 1009.7 | |
| 20260903071540 | 87 | 0.0 | 0.0 | 0.00 | 0.00 | 0.00 | 52 | 1009.7 | |
| 20260903070545 | 87 | 0.0 | 0.0 | 0.00 | 0.00 | 0.00 | 52 | 1009.6 | |
| 20260903065552 | 87 | 0.0 | 0.0 | 0.00 | 0.00 | 0.00 | 51 | 1009.5 | |
| 20260903064524 | 88 | 0.0 | 0.0 | 0.00 | 0.00 | 0.00 | 51 | 1009.5 | |
| 20260903063542 | 88 | 0.0 | 0.0 | 0.00 | 0.00 | 0.00 | 50 | 1009.6 | |
| 20260903062557 | 88 | 0.0 | 0.0 | 0.00 | 0.00 | 0.00 | 50 | 1009.6 | |
| 20260903061542 | 88 | 0.0 | 0.0 | 0.00 | 0.00 | 0.00 | 49 | 1009.7 | |
| 20260903060529 | 88 | 0.0 | 0.0 | 0.00 | 0.00 | 0.00 | 48 | 1009.7 | |
| 20260903055521 | 88 | 0.0 | 0.0 | 0.00 | 0.00 | 0.00 | 48 | 1009.7 | |
| 20260903054527 | 88 | 0.0 | 0.0 | 0.00 | 0.00 | 0.00 | 48 | 1009.7 | |
| 20260903053534 | 88 | 209 | 0.0 | 0.0 | 0.00 | 0.00 | 0.00 | 48 | 1009.7 |
| 20260903052535 | 88 | 336 | 0.0 | 0.0 | 0.00 | 0.00 | 0.00 | 48 | 1009.7 |
| 20260903051544 | 88 | 82 | 0.0 | 0.0 | 0.00 | 0.00 | 0.00 | 48 | 1009.7 |
| 20260903050551 | 88 | 90 | 0.0 | 0.0 | 0.00 | 0.00 | 0.00 | 47 | 1009.7 |
| 20260903045544 | 88 | 214 | 0.0 | 0.9 | 0.00 | 0.00 | 0.00 | 47 | 1009.6 |
| 20260903044551 | 88 | 176 | 0.9 | 0.9 | 0.00 | 0.00 | 0.00 | 47 | 1009.6 |
| 20260903043526 | 89 | 216 | 1.7 | 1.7 | 0.00 | 0.00 | 0.00 | 46 | 1009.6 |
| 20260903042544 | 89 | 206 | 0.9 | 0.9 | 0.00 | 0.00 | 0.00 | 46 | 1009.4 |
| 20260903041521 | 89 | 184 | 0.9 | 0.9 | 0.00 | 0.00 | 0.00 | 46 | 1009.2 |
| 20260903040621 | 89 | 203 | 0.9 | 0.9 | 0.00 | 0.00 | 0.00 | 46 | 1009.1 |
| 20260903035548 | 89 | 80 | 0.9 | 0.9 | 0.00 | 0.00 | 0.00 | 46 | 1009.0 |
| 20260903034527 | 90 | 88 | 0.0 | 0.9 | 0.00 | 0.00 | 0.00 | 46 | 1009.0 |
| 20260903033621 | 90 | 101 | 0.0 | 0.0 | 0.00 | 0.00 | 0.00 | 45 | 1008.8 |
| 20260903032533 | 90 | 233 | 0.0 | 0.0 | 0.00 | 0.00 | 0.00 | 44 | 1008.8 |
| 20260903031552 | 90 | 227 | 0.0 | 0.0 | 0.00 | 0.00 | 0.00 | 43 | 1008.7 |
| 20260903030550 | 91 | 0.0 | 0.0 | 0.00 | 0.00 | 0.00 | 42 | 1008.5 | |
| 20260903025551 | 91 | 0.0 | 0.0 | 0.00 | 0.00 | 0.00 | 42 | 1008.4 | |
| 20260903024536 | 91 | 0.0 | 0.0 | 0.00 | 0.00 | 0.00 | 42 | 1008.3 | |
| 20260903023531 | 92 | 212 | 0.0 | 0.0 | 0.00 | 0.00 | 0.00 | 42 | 1008.2 |
| 20260903022542 | 92 | 248 | 0.0 | 0.9 | 0.00 | 0.00 | 0.00 | 42 | 1008.2 |
| 20260903021542 | 92 | 210 | 0.0 | 0.0 | 0.00 | 0.00 | 0.00 | 41 | 1008.2 |
| 20260903020527 | 92 | 177 | 0.0 | 0.9 | 0.00 | 0.00 | 0.00 | 41 | 1008.2 |
| 20260903015539 | 93 | 207 | 0.0 | 0.9 | 0.00 | 0.00 | 0.00 | 41 | |
| 20260903014526 | 93 | 287 | 0.0 | 0.0 | 0.00 | 0.00 | 0.00 | 41 | 1008.3 |
| 20260903013532 | 93 | 175 | 0.0 | 0.9 | 0.00 | 0.00 | 0.00 | 41 | 1008.1 |
| 20260903012530 | 94 | 88 | 0.0 | 0.9 | 0.00 | 0.00 | 0.00 | 41 | 1008.1 |
| 20260903011524 | 94 | 0.0 | 0.0 | 0.00 | 0.00 | 0.00 | 41 | 1008.0 | |
| 20260903010526 | 94 | 0.0 | 0.0 | 0.00 | 0.00 | 0.00 | 40 | 1007.9 | |
| 20260903005524 | 95 | 253 | 0.0 | 0.0 | 0.00 | 0.00 | 0.00 | 40 | 1008.0 |
| 20260903004523 | 95 | 183 | 0.9 | 0.9 | 0.00 | 0.00 | 0.00 | 40 | 1008.0 |
| 20260903003521 | 95 | 214 | 0.9 | 0.9 | 0.00 | 0.00 | 0.00 | 40 | 1008.1 |
| 20260903002522 | 95 | 0.0 | 0.0 | 0.00 | 0.00 | 0.00 | 40 | 1008.1 | |
| 20260903001527 | 95 | 0.0 | 0.0 | 0.00 | 0.00 | 0.00 | 41 | 1008.1 | |
| 20260903000540 | 95 | 248 | 0.0 | 0.0 | 0.00 | 0.00 | 0.00 | 41 | 1008.1 |
| 20260902235535 | 95 | 0.0 | 0.0 | 0.00 | 0.00 | 0.00 | 41 | 1008.1 | |
| 20260902234546 | 95 | 0.0 | 0.0 | 0.00 | 0.00 | 0.00 | 41 | 1008.1 | |
| 20260902233521 | 95 | 315 | 0.0 | 0.9 | 0.00 | 0.00 | 0.00 | 41 | 1008.1 |
| 20260902232525 | 95 | 9 | 0.0 | 0.0 | 0.00 | 0.00 | 0.00 | 40 | 1008.1 |
| 20260902231531 | 96 | 335 | 0.0 | 0.0 | 0.00 | 0.00 | 0.00 | 40 | 1008.1 |
| 20260902230532 | 96 | 14 | 0.0 | 0.9 | 0.00 | 0.00 | 0.00 | 39 | 1008.3 |
| 20260902225604 | 96 | 322 | 0.0 | 0.0 | 0.00 | 0.00 | 0.00 | 39 | 1008.6 |
| 20260902224524 | 96 | 290 | 0.0 | 0.9 | 0.00 | 0.00 | 0.00 | 39 | 1008.6 |
| 20260902223522 | 97 | 273 | 0.9 | 0.9 | 0.00 | 0.00 | 0.00 | 38 | 1008.7 |
| 20260902222548 | 97 | 277 | 0.0 | 0.9 | 0.00 | 0.00 | 0.00 | 40 | 1008.7 |
| 20260902221534 | 97 | 296 | 0.9 | 0.9 | 0.00 | 0.00 | 0.00 | 40 | 1008.8 |
| 20260902220634 | 97 | 308 | 0.9 | 1.7 | 0.00 | 0.00 | 0.00 | 39 | 1008.9 |
| 20260902215520 | 98 | 334 | 1.7 | 1.7 | 0.00 | 0.00 | 0.00 | 39 | 1009.1 |
| 20260902214529 | 98 | 353 | 0.9 | 0.9 | 0.00 | 0.00 | 0.00 | 38 | 1009.1 |
| 20260902213527 | 98 | 290 | 0.9 | 0.9 | 0.00 | 0.00 | 0.00 | 38 | 1009.0 |
| 20260902212526 | 99 | 319 | 0.9 | 0.9 | 0.00 | 0.00 | 0.00 | 38 | 1009.1 |
| 20260902211524 | 99 | 283 | 0.9 | 1.7 | 0.00 | 0.00 | 0.00 | 38 | 1009.4 |
| 20260902210521 | 99 | 341 | 0.9 | 0.9 | 0.00 | 0.00 | 0.00 | 36 | 1009.6 |
| 20260902205519 | 99 | 273 | 0.9 | 0.9 | 0.00 | 0.00 | 0.00 | 37 | 1009.6 |
| 20260902204530 | 98 | 245 | 0.9 | 0.9 | 0.00 | 0.00 | 0.00 | 38 | 1009.7 |
| 20260902203524 | 99 | 279 | 1.7 | 2.6 | 0.00 | 0.00 | 0.00 | 38 | 1009.8 |
| 20260902202534 | 99 | 275 | 1.7 | 1.7 | 0.00 | 0.00 | 0.00 | 39 | 1009.8 |
| 20260902201540 | 98 | 254 | 0.9 | 0.9 | 0.00 | 0.00 | 0.00 | 38 | 1009.9 |
| 20260902200529 | 99 | 263 | 1.7 | 1.7 | 0.00 | 0.00 | 0.00 | 39 | 1010.1 |
| 20260902195551 | 99 | 304 | 1.7 | 1.7 | 0.00 | 0.00 | 0.00 | 40 | 1010.3 |
| 20260902194525 | 99 | 347 | 1.7 | 1.7 | 0.00 | 0.00 | 0.00 | 40 | 1010.6 |
| 20260902193531 | 99 | 269 | 0.9 | 1.7 | 0.00 | 0.00 | 0.00 | 40 | 1010.9 |
| 20260902192540 | 98 | 308 | 1.7 | 1.7 | 0.00 | 0.00 | 0.00 | 41 | 1011.0 |
| 20260902191525 | 98 | 274 | 0.9 | 1.7 | 0.00 | 0.00 | 0.00 | 41 | 1011.1 |
| 20260902190548 | 98 | 256 | 0.9 | 1.7 | 0.00 | 0.00 | 0.00 | 41 | 1011.3 |
| 20260902185546 | 98 | 301 | 1.7 | 1.7 | 0.00 | 0.00 | 0.00 | 42 | 1011.4 |
| 20260902184531 | 98 | 269 | 0.9 | 0.9 | 0.00 | 0.00 | 0.00 | 42 | 1011.5 |
| 20260902183606 | 98 | 270 | 0.9 | 0.9 | 0.00 | 0.00 | 0.00 | 42 | 1011.6 |
| 20260902182522 | 98 | 281 | 0.9 | 0.9 | 0.00 | 0.00 | 0.00 | 42 | 1011.8 |
| 20260902181551 | 97 | 218 | 0.9 | 0.9 | 0.00 | 0.00 | 0.00 | 42 | 1011.8 |
| 20260902180539 | 97 | 272 | 0.9 | 0.9 | 0.00 | 0.00 | 0.00 | 43 | 1011.9 |
| 20260902175527 | 97 | 248 | 0.9 | 0.9 | 0.00 | 0.00 | 0.00 | 43 | 1011.9 |
| 20260902174544 | 96 | 250 | 0.9 | 0.9 | 0.00 | 0.00 | 0.00 | 44 | 1012.0 |
| 20260902173528 | 96 | 344 | 0.9 | 0.9 | 0.00 | 0.00 | 0.00 | 44 | 1012.1 |
| 20260902172521 | 95 | 298 | 0.9 | 0.9 | 0.00 | 0.00 | 0.00 | 45 | 1012.2 |
| 20260902171550 | 95 | 318 | 0.9 | 0.9 | 0.00 | 0.00 | 0.00 | 45 | 1012.2 |
| 20260902170525 | 94 | 349 | 0.9 | 0.9 | 0.00 | 0.00 | 0.00 | 47 | 1012.2 |
| 20260902165536 | 94 | 334 | 0.9 | 0.9 | 0.00 | 0.00 | 0.00 | 47 | 1012.1 |
| 20260902164534 | 93 | 266 | 0.9 | 0.9 | 0.00 | 0.00 | 0.00 | 47 | 1012.1 |
| 20260902163550 | 92 | 215 | 0.9 | 0.9 | 0.00 | 0.00 | 0.00 | 48 | 1012.1 |
| 20260902162546 | 91 | 233 | 0.0 | 0.0 | 0.00 | 0.00 | 0.00 | 49 | 1012.2 |
| 20260902161521 | 91 | 196 | 0.0 | 0.0 | 0.00 | 0.00 | 0.00 | 49 | 1012.2 |
| 20260902160546 | 90 | 187 | 0.0 | 0.9 | 0.00 | 0.00 | 0.00 | 50 | 1012.1 |
| 20260902155531 | 90 | 51 | 0.0 | 0.0 | 0.00 | 0.00 | 0.00 | 51 | 1012.1 |
| 20260902154527 | 89 | 224 | 0.9 | 0.9 | 0.00 | 0.00 | 0.00 | 51 | 1012.1 |
| 20260902153603 | 88 | 147 | 0.9 | 0.9 | 0.00 | 0.00 | 0.00 | 52 | 1012.1 |
| 20260902152538 | 87 | 215 | 0.9 | 0.9 | 0.00 | 0.00 | 0.00 | 53 | 1012.1 |
| 20260902151523 | 87 | 187 | 0.0 | 0.9 | 0.00 | 0.00 | 0.00 | 53 | 1012.1 |
| 20260902150548 | 86 | 143 | 0.0 | 0.9 | 0.00 | 0.00 | 0.00 | 54 | 1012.1 |
| 20260902145523 | 86 | 181 | 0.0 | 0.9 | 0.00 | 0.00 | 0.00 | 54 | 1012.1 |
| 20260902144531 | 85 | 0.0 | 0.0 | 0.00 | 0.00 | 0.00 | 54 | 1012.1 | |
| 20260902143530 | 84 | 0.0 | 0.0 | 0.00 | 0.00 | 0.00 | 54 | 1012.1 | |
| 20260902142539 | 83 | 0.0 | 0.0 | 0.00 | 0.00 | 0.00 | 54 | 1012.1 | |
| 20260902141546 | 82 | 0.0 | 0.0 | 0.00 | 0.00 | 0.00 | 54 | 1011.9 | |
| 20260902140523 | 81 | 0.0 | 0.0 | 0.00 | 0.00 | 0.00 | 54 | 1011.8 | |
| 20260902135521 | 80 | 0.0 | 0.0 | 0.00 | 0.00 | 0.00 | 54 | 1011.7 | |
| 20260902134519 | 80 | 0.0 | 0.0 | 0.00 | 0.00 | 0.00 | 54 | ||
| 20260902133547 | 79 | 0.0 | 0.0 | 0.00 | 0.00 | 0.00 | 54 | 1011.6 | |
| 20260902132522 | 79 | 0.0 | 0.0 | 0.00 | 0.00 | 0.00 | 54 | 1011.5 | |
| 20260902131549 | 79 | 0.0 | 0.0 | 0.00 | 0.00 | 0.00 | 55 | 1011.5 | |
| 20260902130555 | 80 | 0.0 | 0.0 | 0.00 | 0.00 | 0.00 | 54 | 1011.3 | |
| 20260902125540 | 80 | 0.0 | 0.0 | 0.00 | 0.00 | 0.00 | 54 | 1011.3 | |
| 20260902124523 | 80 | 0.0 | 0.0 | 0.00 | 0.00 | 0.00 | 54 | 1011.2 | |
| 20260902123520 | 80 | 0.0 | 0.0 | 0.00 | 0.00 | 0.00 | 54 | 1011.1 | |
| 20260902122525 | 80 | 0.0 | 0.0 | 0.00 | 0.00 | 0.00 | 54 | 1011.1 | |
| 20260902121532 | 80 | 0.0 | 0.0 | 0.00 | 0.00 | 0.00 | 54 | 1011.0 | |
| 20260902120538 | 80 | 0.0 | 0.0 | 0.00 | 0.00 | 0.00 | 54 | 1011.0 | |
| 20260902115520 | 80 | 0.0 | 0.0 | 0.00 | 0.00 | 0.00 | 54 | 1010.9 | |
| 20260902114623 | 80 | 0.0 | 0.0 | 0.00 | 0.00 | 0.00 | 54 | 1010.8 | |
| 20260902113543 | 80 | 0.0 | 0.0 | 0.00 | 0.00 | 0.00 | 55 | 1010.8 | |
| 20260902112548 | 80 | 0.0 | 0.0 | 0.00 | 0.00 | 0.00 | 55 | 1010.8 | |
| 20260902111534 | 80 | 0.0 | 0.0 | 0.00 | 0.00 | 0.00 | 55 | 1010.8 | |
| 20260902110531 | 80 | 0.0 | 0.0 | 0.00 | 0.00 | 0.00 | 55 | 1010.8 | |
| 20260902105528 | 80 | 0.0 | 0.0 | 0.00 | 0.00 | 0.00 | 55 | 1010.8 | |
| 20260902104519 | 81 | 0.0 | 0.0 | 0.00 | 0.00 | 0.00 | 55 | 1010.8 | |
| 20260902103525 | 81 | 0.0 | 0.0 | 0.00 | 0.00 | 0.00 | 55 | 1011.0 | |
| 20260902102545 | 81 | 0.0 | 0.0 | 0.00 | 0.00 | 0.00 | 55 | 1011.0 | |
| 20260902101541 | 81 | 0.0 | 0.0 | 0.00 | 0.00 | 0.00 | 54 | 1011.0 | |
| 20260902100528 | 81 | 0.0 | 0.0 | 0.00 | 0.00 | 0.00 | 55 | 1010.8 | |
| 20260902095543 | 81 | 0.0 | 0.0 | 0.00 | 0.00 | 0.00 | 55 | 1010.9 | |
| 20260902094540 | 81 | 0.0 | 0.0 | 0.00 | 0.00 | 0.00 | 55 | 1011.0 |